Regional Weather Roundup
Issued by NWS Sterling, VA

Home | Current Version | Previous Version | Graphics & Text | Print | Product List | Glossary On
Versions: 1 2 3 4 5 6 7 8 9 10 11 12 13 14 15 16 17 18 19 20 21 22 23 24 25 26 27
000
ASUS41 KLWX 251411
RWRLWX

REGIONAL WEATHER ROUNDUP
NATIONAL WEATHER SERVICE BALTIMORE MD/WASHINGTON DC
1000 AM EDT MON SEP 25 2017

Note: "FAIR" indicates few or no clouds below 12,000 feet
with no significant weather and/or obstructions to visibility.
 TC=TEMPERATURE CELSIUS

 * =Non NWS site. Station does not report precipitation (e.g. rain,
    snow, etc.), thunder, or fog.

DCZ001-MDZ009-015-VAZ040>042-051-053>054-251500-
WASHINGTON METRO

CITY           SKY/WX    TMP DP  RH WIND       PRES   REMARKS
WASHINGTON NAT MOSUNNY   80  68  66 CALM      30.07S
DULLES         MOSUNNY   77  69  76 NW3       30.08R
ANDREWS AFB    SUNNY     79  65  62 E3        30.06S
FT BELVOIR     SUNNY     78  68  69 CALM      30.06S
QUANTICO       PTSUNNY   77  70  79 E6        30.07S
COLLEGE PARK*  SUNNY     77  67  72 CALM      30.06S
LEESBURG*      SUNNY     79  70  73 NE6       30.09S
MANASSAS*      SUNNY     78  69  73 CALM      30.08S
GAITHERSBURG*  SUNNY     78  67  68 VRB3      30.09S

$$

MDZ006>007-011-014-251500-
BALTIMORE METRO

CITY           SKY/WX    TMP DP  RH WIND       PRES   REMARKS
BWI AIRPORT    PTSUNNY   79  69  71 E3        30.06S
MD SCIENCE CTR   N/A     82  70  66 MISG      30.07R
MARTIN STATE   MOSUNNY   79  73  83 CALM      30.08R
ANNAPOLIS      SUNNY     80  67  64 SE5       30.06
FORT MEADE*    SUNNY     75  70  83 CALM      30.09S

$$

MDZ012-015-019>023-251500-
MARYLAND EASTERN SHORE

CITY           SKY/WX    TMP DP  RH WIND       PRES   REMARKS
OCEAN CITY     CLOUDY    70  69  97 E7        30.06R
SALISBURY      SUNNY     75  69  81 E7        30.05R
CAMBRIDGE*     SUNNY     77  61  57 E5        30.06R
EASTON*        SUNNY     73  64  73 NE6       30.09S

$$

MDZ017>025-251500-
SOUTHERN MARYLAND

CITY           SKY/WX    TMP DP  RH WIND       PRES   REMARKS
PATUXENT RIVER MOSUNNY   77  60  55 E6        30.05S
ST INIGOES     NOT AVBL
LEONARDTOWN*   SUNNY     75  59  57 NE5       30.07S

$$

MDZ003>005-251500-
NORTH CENTRAL MARYLAND

CITY           SKY/WX    TMP DP  RH WIND       PRES   REMARKS
FREDERICK*     SUNNY     77  72  83 CALM      30.11S
HAGERSTOWN APT SUNNY     76  68  76 CALM      30.10S
WESTMINSTER*   SUNNY     79  70  73 E3        30.09S

$$

MDZ501>502-251500-
WESTERN MARYLAND

CITY           SKY/WX    TMP DP  RH WIND       PRES   REMARKS
OAKLAND*       MOSUNNY   70  63  78 E9        30.17S
CUMBERLAND*    MOSUNNY   72  64  78 CALM      30.16S

$$

VAZ025>031-251500-
SHENANDOAH VALLEY

CITY           SKY/WX    TMP DP  RH WIND       PRES   REMARKS
WINCHESTER*    SUNNY     72  63  73 CALM      30.10S
FRONT ROYAL*   SUNNY     73  64  73 CALM      30.10S
LURAY*         SUNNY     68  64  88 CALM      30.12S
NEW MARKET*    SUNNY     71  62  72 CALM      30.11S
STAUNTON*      SUNNY     68  61  79 CALM      30.14S
WAYNESBORO*    SUNNY     70  64  82 CALM      30.13S

$$

WVZ021-048>050-054>055-251500-
EASTERN WEST VIRGINIA PANHANDLE

CITY           SKY/WX    TMP DP  RH WIND       PRES   REMARKS
MARTINSBURG    SUNNY     73  65  75 CALM      30.09S
PETERSBURG*    MOSUNNY   72  64  76 CALM      30.13S

$$

VAZ036>039-050-251500-
CENTRAL FOOTHILLS

CITY           SKY/WX    TMP DP  RH WIND       PRES   REMARKS
CHARLOTTESVILL SUNNY     79  66  64 NE3       30.09R
CULPEPER*        N/A    N/A N/A N/A MISG        N/A
ORANGE*        SUNNY     75  66  73 NE3       30.08S
GORDONSVILLE*  SUNNY     77  69  76 E3        30.08S
WARRENTON*     SUNNY     78  65  63 CALM      30.07F

$$

VAZ055>057-251500-
NORTH AND CENTRAL PIEDMONT

CITY           SKY/WX    TMP DP  RH WIND       PRES   REMARKS
FREDERICKSBRG* SUNNY     78  69  75 CALM      30.06R
STAFFORD*      SUNNY     78  70  75 CALM      30.10S

$$

NCZ024-NYZ072-PAZ021-071-VAZ022-071-251500-
OTHER REGIONAL OBSERVATIONS

CITY           SKY/WX    TMP DP  RH WIND       PRES   REMARKS
NEW YORK CITY  SUNNY     79  65  62 NE6       30.11R
PHILADELPHIA   MOSUNNY   79  66  64 CALM      30.07S
PITTSBURGH     PTSUNNY   75  66  73 E3        30.13R
ROANOKE        MOSUNNY   75  64  68 N7        30.12F
RICHMOND       PTSUNNY   77  63  61 NE8       30.04S
RALEIGH        PTSUNNY   73  64  73 NE7       30.01F

$$

ANZ530>537-251500-
MARINE OBSERVATIONS

STATION/POSITION TIME  TEMP    WIND        PRES
                       AIR SEA DIR/SP/G
                 (UTC) (F)     (DEG/KT/KT) (MB)
THOMAS PT LIGHT  1400   76 76   60/  2/  2   N/A
BALT KEY BRIDGE  1348   75     120/  6/  6 1018.0R
COVE POINT       1348   75      80/  1/  4 1018.5R
LEWISETTA        1348   74 78  120/ 10/ 11 1017.5R
SOLOMONS ISLAND  1348   76 77   80/  5/  6 1017.3R
PINEY POINT      1336          100/  6/  7   N/A

$$





USA.gov is the U.S. government's official web portal to all federal, state and local government web resources and services.